Location: ????????
(56.0167°N, 38.0333°E)
Time: 05:06:05
(UTC+00:00)

H-2A R/B - Pass Details

Date: 19 May 2025
Orbit: 555 x 622 km, 98.4° (Epoch: 19 June)

Event Time Altitude Azimuth Distance (km) Brightness Sun altitude
Rises 23:22:37 0° 18° (NNE) 2,841 7.5 -10.0°
Reaches altitude 10° 23:24:50 10° 21° (NNE) 1,923 6.2 -9.8°
Maximum altitude 23:28:58 63° 103° (ESE) 650 2.2 -9.6°
Drops below altitude 10° 23:32:59 10° 185° (S) 1,869 4.0 -9.3°
Enters shadow 23:32:59 10° 185° (S) 1,871 4.0 -9.3°
